| time (UTC) | temp F | wind direction | speed knots | gust knots | rain 1hr in | rain 24hr in | rain mn in | humidity % | barometer mb |
| 20260905053018 | 64 | 0.0 | 0.0 | 0.00 | 0.00 | 0.00 | 87 | 1013.2 | |
| 20260905050018 | 64 | 0.0 | 0.0 | 0.00 | 0.00 | 0.00 | 86 | 1013.0 | |
| 20260905043018 | 65 | 248 | 1.7 | 3.5 | 0.00 | 0.00 | 0.00 | 86 | 1012.4 |
| 20260905040018 | 66 | 248 | 2.6 | 5.2 | 0.00 | 0.00 | 0.00 | 83 | 1012.3 |
| 20260905033018 | 67 | 270 | 3.5 | 6.1 | 0.00 | 0.00 | 0.00 | 81 | 1012.1 |
| 20260905030018 | 68 | 270 | 4.3 | 7.0 | 0.00 | 0.00 | 0.00 | 78 | 1011.9 |
| 20260905023018 | 70 | 270 | 5.2 | 8.7 | 0.00 | 0.00 | 0.00 | 72 | 1011.7 |
| 20260905020018 | 74 | 248 | 5.2 | 8.7 | 0.00 | 0.00 | 0.00 | 60 | 1011.8 |
| 20260905013018 | 77 | 270 | 5.2 | 8.7 | 0.00 | 0.00 | 0.00 | 49 | 1011.7 |
| 20260905010017 | 78 | 270 | 5.2 | 10.4 | 0.00 | 0.00 | 0.00 | 48 | 1011.7 |
| 20260905003019 | 79 | 248 | 5.2 | 10.4 | 0.00 | 0.00 | 0.00 | 49 | 1011.7 |
| 20260905000019 | 80 | 248 | 5.2 | 11.3 | 0.00 | 0.00 | 0.00 | 50 | 1012.0 |
| 20260904233019 | 80 | 248 | 6.1 | 11.3 | 0.00 | 0.00 | 0.00 | 52 | 1011.9 |
| 20260904230039 | 79 | 248 | 7.8 | 14.8 | 0.00 | 0.00 | 0.00 | 54 | 1011.9 |
| 20260904223019 | 78 | 248 | 9.6 | 15.6 | 0.00 | 0.00 | 0.00 | 57 | 1012.2 |
| 20260904220019 | 79 | 248 | 8.7 | 15.6 | 0.00 | 0.00 | 0.00 | 57 | 1012.3 |
| 20260904213019 | 80 | 248 | 9.6 | 16.5 | 0.00 | 0.00 | 0.00 | 55 | 1012.4 |
| 20260904210019 | 80 | 248 | 8.7 | 15.6 | 0.00 | 0.00 | 0.00 | 54 | 1012.3 |
| 20260904203019 | 81 | 248 | 7.8 | 14.8 | 0.00 | 0.00 | 0.00 | 52 | 1012.7 |
| 20260904200019 | 81 | 248 | 7.0 | 13.0 | 0.00 | 0.00 | 0.00 | 52 | 1012.6 |
| 20260904193019 | 80 | 248 | 6.1 | 11.3 | 0.00 | 0.00 | 0.00 | 53 | 1013.0 |
| 20260904190018 | 79 | 248 | 6.1 | 13.0 | 0.00 | 0.00 | 0.00 | 53 | 1013.2 |
| 20260904183018 | 77 | 248 | 5.2 | 10.4 | 0.00 | 0.00 | 0.00 | 55 | 1013.5 |
| 20260904180019 | 76 | 270 | 4.3 | 8.7 | 0.00 | 0.00 | 0.00 | 60 | 1013.6 |
| 20260904173019 | 74 | 270 | 3.5 | 9.6 | 0.00 | 0.00 | 0.00 | 61 | 1013.5 |
| 20260904170019 | 72 | 293 | 1.7 | 5.2 | 0.00 | 0.00 | 0.00 | 66 | 1013.5 |
| 20260904163018 | 70 | 68 | 1.7 | 5.2 | 0.00 | 0.00 | 0.00 | 70 | 1013.4 |
| 20260904160018 | 66 | 90 | 3.5 | 7.8 | 0.00 | 0.00 | 0.00 | 76 | 1012.9 |
| 20260904153018 | 64 | 90 | 2.6 | 6.1 | 0.00 | 0.00 | 0.00 | 81 | 1012.9 |
| 20260904150018 | 62 | 0.0 | 4.3 | 0.00 | 0.00 | 0.00 | 89 | 1012.7 | |
| 20260904143018 | 61 | 68 | 0.9 | 6.1 | 0.00 | 0.00 | 0.00 | 90 | 1012.7 |
| 20260904140018 | 61 | 68 | 0.9 | 3.5 | 0.00 | 0.00 | 0.00 | 90 | 1012.5 |
| 20260904133018 | 61 | 68 | 1.7 | 5.2 | 0.00 | 0.00 | 0.00 | 90 | 1012.4 |
| 20260904130018 | 61 | 68 | 0.9 | 4.3 | 0.00 | 0.00 | 0.00 | 90 | 1012.2 |
| 20260904123018 | 62 | 45 | 0.9 | 3.5 | 0.00 | 0.00 | 0.00 | 90 | 1012.2 |
| 20260904120018 | 62 | 0.0 | 3.5 | 0.00 | 0.00 | 0.00 | 90 | 1012.0 | |
| 20260904113018 | 62 | 0.0 | 0.0 | 0.00 | 0.00 | 0.00 | 91 | 1012.4 | |
| 20260904110018 | 62 | 90 | 0.9 | 2.6 | 0.00 | 0.00 | 0.00 | 91 | 1012.3 |
| 20260904103017 | 62 | 0.0 | 2.6 | 0.00 | 0.00 | 0.00 | 92 | 1012.4 | |
| 20260904100017 | 62 | 0.0 | 3.5 | 0.00 | 0.00 | 0.00 | 92 | 1012.2 | |
| 20260904093017 | 62 | 0.0 | 2.6 | 0.00 | 0.00 | 0.00 | 91 | 1012.4 | |
| 20260904090039 | 62 | 0.0 | 2.6 | 0.00 | 0.00 | 0.00 | 91 | 1012.2 | |
| 20260904083019 | 61 | 158 | 0.9 | 3.5 | 0.00 | 0.00 | 0.00 | 91 | 1012.5 |
| 20260904080019 | 62 | 135 | 0.9 | 3.5 | 0.00 | 0.00 | 0.00 | 91 | 1012.7 |
| 20260904073020 | 62 | 0.0 | 2.6 | 0.00 | 0.00 | 0.00 | 90 | 1012.9 | |
| 20260904070019 | 62 | 0.0 | 0.0 | 0.00 | 0.00 | 0.00 | 90 | 1012.8 | |
| 20260904063039 | 62 | 0.0 | 0.0 | 0.00 | 0.00 | 0.00 | 89 | 1012.6 | |
| 20260904060019 | 62 | 0.0 | 0.0 | 0.00 | 0.00 | 0.00 | 89 | 1012.5 |